FW9306 Weather Reports


Display with metric or nautical units.
time (UTC)temp
F
wind
direction
speed
MPH
gust
MPH
rain 1hr
in
rain 24hr
in
rain mn
in
humidity
%
barometer
mb
20260505101728 57 211 0.0 0.0 0.07 0.21 0.21 94 1011.7
20260505101224 57 191 0.0 0.0 0.07 0.21 0.21 94 1012.0
20260505100721 57 191 2.0 3.0 0.00 0.20 0.20 94 1011.8
20260505100218 57 219 1.0 1.0 0.00 0.20 0.20 94 1012.0
20260505095713 57 184 4.0 6.0 0.00 0.20 0.20 94 1011.9
20260505095211 57 209 0.0 1.0 0.00 0.20 0.20 94 1012.0
20260505094706 57 218 0.0 0.0 0.00 0.20 0.20 94 1012.2
20260505094203 57 120 3.0 6.0 0.05 0.20 0.20 94 1012.3
20260505093659 57 123 2.0 3.0 0.05 0.20 0.20 94 1012.1
20260505093157 57 158 3.0 3.0 0.12 0.20 0.20 94 1012.4
20260505092654 57 133 1.0 1.0 0.07 0.19 0.19 94 1012.5
20260505092152 57 83 2.0 2.0 0.05 0.18 0.18 94 1012.5
20260505091649 57 124 2.0 3.0 0.05 0.18 0.18 94 1012.9
20260505091147 57 126 1.0 2.0 0.07 0.17 0.17 94 1012.7
20260505090644 57 154 3.0 3.0 0.14 0.17 0.17 94 1012.8
20260505090143 57 183 1.0 2.0 0.07 0.16 0.16 94 1013.2
20260505085639 58 196 2.0 2.0 0.05 0.15 0.15 94 1013.2
20260505085138 58 161 2.0 2.0 0.05 0.15 0.15 94 1013.5
20260505084635 58 191 3.0 5.0 0.07 0.14 0.14 94 1013.4
20260505084133 58 133 3.0 3.0 0.07 0.14 0.14 94 1013.4
20260505083631 58 128 2.0 3.0 0.05 0.13 0.13 94 1013.8
20260505083127 58 163 4.0 5.0 0.05 0.13 0.13 94 1014.0
20260505082623 58 153 1.0 2.0 0.00 0.12 0.12 94 1014.2
20260505082120 58 174 2.0 2.0 0.07 0.12 0.12 94 1014.1
20260505081616 58 121 2.0 3.0 0.07 0.12 0.12 94 1014.4
20260505081114 58 169 3.0 3.0 0.12 0.11 0.11 94 1014.4
20260505080610 58 69 2.0 2.0 0.12 0.11 0.11 93 1014.5
20260505080107 58 142 2.0 2.0 0.12 0.10 0.10 93 1014.8
20260505075602 58 161 0.0 0.0 0.12 0.09 0.09 93 1014.9
20260505075059 58 177 0.0 0.0 0.19 0.08 0.08 93 1014.6
20260505074556 58 120 0.0 1.0 0.17 0.07 0.07 93 1014.7
20260505074053 58 167 1.0 1.0 0.12 0.05 0.05 93 1015.0
20260505073551 58 148 0.0 0.0 0.14 0.04 0.04 92 1015.0
20260505073049 58 154 1.0 1.0 0.07 0.03 0.03 92 1014.9
20260505072544 58 185 0.0 0.0 0.00 0.02 0.02 92 1014.8
20260505072041 57 106 1.0 2.0 0.05 0.02 0.02 92 1014.6
20260505071536 58 62 3.0 3.0 0.12 0.02 0.02 92 1014.5
20260505071035 58 128 1.0 2.0 0.07 0.01 0.01 92 1014.7
20260505070532 58 100 1.0 2.0 0.00 0.00 0.00 92 1014.7
20260505070027 58 114 1.0 1.0 0.05 0.23 0.23 91 1014.6
20260505065523 58 187 1.0 1.0 0.05 0.23 0.23 91 1014.5
20260505065020 58 79 0.0 0.0 0.07 0.22 0.22 91 1014.5
20260505064517 58 194 1.0 1.0 0.07 0.22 0.22 90 1014.4
20260505064016 58 187 0.0 0.0 0.05 0.21 0.21 90 1014.3
20260505063513 59 189 1.0 1.0 0.05 0.21 0.21 89 1014.1
20260505063008 58 141 0.0 1.0 0.07 0.20 0.20 88 1014.4
20260505062505 58 79 1.0 2.0 0.07 0.20 0.20 87 1014.2
20260505062002 59 45 3.0 3.0 0.05 0.19 0.19 87 1014.5
20260505061500 59 10 3.0 3.0 0.05 0.19 0.19 86 1014.7
20260505060957 59 43 2.0 2.0 0.07 0.18 0.18 86 1014.7
20260505060454 59 41 2.0 2.0 0.07 0.18 0.18 85 1014.4
20260505055951 60 70 1.0 1.0 0.00 0.17 0.17 85 1014.5
20260505055446 60 58 2.0 2.0 0.05 0.17 0.17 84 1014.4
20260505054944 59 31 1.0 1.0 0.05 0.17 0.17 84 1014.2
20260505054441 59 83 1.0 1.0 0.05 0.17 0.17 85 1014.0
20260505053939 59 70 1.0 1.0 0.00 0.16 0.16 85 1014.0
20260505053436 59 78 1.0 2.0 0.00 0.16 0.16 84 1014.2
20260505052932 60 125 0.0 1.0 0.00 0.16 0.16 85 1014.4
20260505052429 60 140 1.0 1.0 0.07 0.16 0.16 84 1014.5
20260505051927 60 123 1.0 1.0 0.07 0.16 0.16 83 1014.7
20260505051423 60 83 1.0 2.0 0.00 0.15 0.15 83 1014.7
20260505050922 60 147 1.0 1.0 0.00 0.15 0.15 83 1014.6
20260505050420 59 40 2.0 2.0 0.00 0.15 0.15 83 1014.5
20260505041347 58 84 2.0 2.0 0.00 0.14 0.14 81 1014.3
20260505040844 57 347 1.0 1.0 0.00 0.14 0.14 84 1014.4
20260505040342 57 20 2.0 2.0 0.00 0.14 0.14 86 1014.2
20260505035838 57 358 4.0 5.0 0.00 0.14 0.14 85 1014.2
20260505035334 56 46 4.0 6.0 0.00 0.14 0.14 86 1014.1
20260505034832 57 23 3.0 5.0 0.00 0.14 0.14 86 1014.1
20260505034328 56 59 5.0 7.0 0.00 0.14 0.14 86 1013.7
20260505033825 56 125 6.0 7.0 0.00 0.14 0.14 87 1013.7
20260505033322 56 42 5.0 6.0 0.00 0.14 0.14 88 1013.5
20260505032821 57 27 4.0 5.0 0.00 0.14 0.14 88 1013.6
20260505032316 57 55 4.0 5.0 0.00 0.14 0.14 88 1013.6
20260505031814 57 42 4.0 6.0 0.07 0.14 0.14 88 1013.5
20260505031310 57 63 6.0 8.0 0.07 0.14 0.14 88 1013.5
20260505030808 57 72 3.0 5.0 0.14 0.14 0.14 88 1014.0
20260505030304 57 55 3.0 5.0 0.12 0.13 0.13 88 1014.3
20260505025759 58 39 4.0 5.0 0.12 0.12 0.12 87 1014.4
20260505025257 58 33 2.0 2.0 0.07 0.11 0.11 87 1014.6
20260505024755 58 60 4.0 5.0 0.12 0.11 0.11 86 1014.4
20260505024252 58 45 3.0 3.0 0.12 0.10 0.10 86 1014.7
20260505023749 58 56 3.0 5.0 0.12 0.09 0.09 85 1014.5
20260505023246 58 43 3.0 3.0 0.05 0.08 0.08 85 1014.7
20260505022744 58 64 3.0 5.0 0.07 0.07 0.07 84 1014.8
20260505022241 59 43 2.0 2.0 0.07 0.07 0.07 84 1014.4
20260505021737 59 22 4.0 5.0 0.05 0.06 0.06 83 1014.5
20260505021235 59 19 4.0 5.0 0.05 0.06 0.06 84 1014.4
20260505020730 59 43 4.0 5.0 0.00 0.05 0.05 84 1014.5
20260505020225 59 80 3.0 3.0 0.00 0.05 0.05 84 1014.6
20260505015723 58 42 2.0 2.0 0.00 0.05 0.05 84 1014.3
20260505015220 59 345 3.0 3.0 0.07 0.05 0.05 85 1014.5
20260505014717 60 180 0.0 1.0 0.07 0.05 0.05 85 1014.5
20260505014214 60 147 1.0 1.0 0.05 0.04 0.04 84 1014.1
20260505013711 60 18 3.0 3.0 0.19 0.04 0.04 81 1013.8
20260505013208 61 21 4.0 5.0 0.14 0.03 0.03 79 1014.0
20260505012706 63 36 3.0 3.0 0.07 0.02 0.02 73 1013.7
20260505012203 63 44 2.0 2.0 0.00 0.01 0.01 72 1013.6
20260505011658 63 31 2.0 2.0 0.00 0.01 0.01 73 1013.1
20260505011156 62 22 5.0 6.0 0.05 0.01 0.01 75 1012.9
20260505010651 64 352 5.0 5.0 0.05 0.01 0.01 71 1012.7
20260505010148 64 36 4.0 5.0 0.00 0.00 0.00 66 1012.9
20260505005644 64 4 5.0 6.0 0.00 0.00 0.00 64 1013.0
20260505005142 64 342 6.0 7.0 0.00 0.00 0.00 62 1013.1
20260505004638 65 358 4.0 5.0 0.00 0.00 0.00 59 1013.3
20260505004135 66 345 6.0 7.0 0.00 0.00 0.00 54 1013.2
20260505003632 67 347 2.0 3.0 0.00 0.00 0.00 53 1013.5
20260505003130 68 323 4.0 6.0 0.00 0.00 0.00 48 1013.4
20260505002626 68 1 3.0 3.0 0.00 0.00 0.00 47 1013.7
20260505002124 69 338 4.0 5.0 0.00 0.00 0.00 45 1013.3
20260505001621 69 349 2.0 2.0 0.00 0.00 0.00 45 1013.2
20260505001118 70 358 3.0 3.0 0.00 0.00 0.00 43 1012.7
20260505000615 71 336 4.0 5.0 0.00 0.00 0.00 39 1013.0
20260505000113 72 317 3.0 3.0 0.00 0.00 0.00 35 1012.8
20260504235609 72 344 5.0 6.0 0.00 0.00 0.00 33 1012.7
20260504235106 72 314 6.0 7.0 0.00 0.00 0.00 33 1012.3
20260504234603 72 356 8.0 11.0 0.00 0.00 0.00 34 1012.3
20260504234100 72 294 5.0 7.0 0.00 0.00 0.00 33 1012.3
20260504233555 73 300 11.0 14.0 0.00 0.00 0.00 31 1012.3
20260504233052 73 346 7.0 8.0 0.00 0.00 0.00 31 1012.2
20260504232549 73 335 5.0 8.0 0.00 0.00 0.00 31 1012.8
20260504232047 74 337 11.0 14.0 0.00 0.00 0.00 30 1012.8
20260504231543 75 285 12.0 15.0 0.00 0.00 0.00 27 1012.7
20260504231039 75 164 12.0 14.0 0.00 0.00 0.00 27 1012.5
20260504230536 75 309 11.0 15.0 0.00 0.00 0.00 27 1012.2
20260504230035 75 272 14.0 16.0 0.00 0.00 0.00 27 1012.1
20260504225532 77 284 13.0 15.0 0.00 0.00 0.00 26 1012.0
20260504225029 77 324 14.0 18.0 0.00 0.00 0.00 23 1011.7
20260504224525 78 324 9.0 10.0 0.00 0.00 0.00 22 1011.8
20260504224023 78 257 11.0 11.0 0.00 0.00 0.00 23 1011.9
20260504223519 78 253 8.0 10.0 0.00 0.00 0.00 21 1011.9
20260504223015 78 268 8.0 11.0 0.00 0.00 0.00 22 1012.1
20260504222512 78 295 11.0 13.0 0.00 0.00 0.00 21 1012.1
20260504222010 78 277 9.0 11.0 0.00 0.00 0.00 21 1012.0
20260504221507 78 94 7.0 10.0 0.00 0.00 0.00 22 1012.5
20260504221003 80 222 14.0 17.0 0.00 0.00 0.00 19 1012.3
20260504220500 80 271 10.0 14.0 0.00 0.00 0.00 19 1012.2
20260504215957 80 307 14.0 17.0 0.00 0.00 0.00 20 1012.3
20260504215453 80 228 6.0 7.0 0.00 0.00 0.00 22 1012.2
20260504214950 80 285 13.0 14.0 0.00 0.00 0.00 22 1012.1
20260504214446 80 264 7.0 8.0 0.00 0.00 0.00 22 1012.2
20260504213943 80 303 12.0 13.0 0.00 0.00 0.00 22 1011.9
20260504213439 80 279 10.0 11.0 0.00 0.00 0.00 21 1012.1
20260504212937 80 80 11.0 13.0 0.00 0.00 0.00 21 1012.1
20260504212432 80 284 11.0 11.0 0.00 0.00 0.00 21 1012.1
20260504211931 80 313 5.0 7.0 0.00 0.00 0.00 20 1011.9
20260504211426 80 265 7.0 8.0 0.00 0.00 0.00 21 1012.1
20260504210924 80 284 7.0 9.0 0.00 0.00 0.00 21 1012.0
20260504210421 80 264 7.0 8.0 0.00 0.00 0.00 20 1012.0
20260504205918 80 346 7.0 9.0 0.00 0.00 0.00 21 1012.3
20260504205416 80 202 1.0 1.0 0.00 0.00 0.00 22 1012.4
20260504204914 80 248 6.0 7.0 0.00 0.00 0.00 21 1012.2
20260504204412 80 320 3.0 5.0 0.00 0.00 0.00 23 1012.3
20260504203911 80 301 3.0 3.0 0.00 0.00 0.00 22 1012.4
20260504203408 80 249 4.0 5.0 0.00 0.00 0.00 21 1012.4
20260504202903 79 334 5.0 6.0 0.00 0.00 0.00 22 1012.5
20260504202400 80 291 5.0 7.0 0.00 0.00 0.00 21 1012.4
20260504201857 80 294 4.0 5.0 0.00 0.00 0.00 21 1012.5
20260504201354 80 290 5.0 6.0 0.00 0.00 0.00 22 1012.8
20260504200852 80 344 4.0 5.0 0.00 0.00 0.00 23 1012.7
20260504200348 79 233 5.0 6.0 0.00 0.00 0.00 23 1012.5
20260504195845 79 290 7.0 9.0 0.00 0.00 0.00 22 1012.5
20260504195340 79 307 3.0 3.0 0.00 0.00 0.00 23 1012.4
20260504194837 78 128 8.0 9.0 0.00 0.00 0.00 23 1012.3
20260504194333 79 228 6.0 7.0 0.00 0.00 0.00 22 1012.3
20260504193829 79 322 7.0 7.0 0.00 0.00 0.00 23 1012.5
20260504193327 79 266 5.0 6.0 0.00 0.00 0.00 23 1012.4
20260504192826 78 227 7.0 7.0 0.00 0.00 0.00 22 1012.8
20260504192323 79 221 11.0 13.0 0.00 0.00 0.00 22 1012.7
20260504191821 78 327 6.0 7.0 0.00 0.00 0.00 22 1013.0
20260504191319 78 251 8.0 9.0 0.00 0.00 0.00 23 1012.8
20260504190814 78 218 9.0 9.0 0.00 0.00 0.00 23 1012.8
20260504190310 78 135 2.0 2.0 0.00 0.00 0.00 26 1012.9
20260504185807 78 14 2.0 2.0 0.00 0.00 0.00 26 1012.8
20260504185305 78 338 2.0 2.0 0.00 0.00 0.00 26 1012.9
20260504184800 78 132 2.0 2.0 0.00 0.00 0.00 25 1013.2
20260504184256 77 181 3.0 3.0 0.00 0.00 0.00 26 1013.1
20260504183752 77 224 2.0 2.0 0.00 0.00 0.00 27 1013.2
20260504183249 77 206 9.0 10.0 0.00 0.00 0.00 27 1013.3
20260504182747 76 275 6.0 6.0 0.00 0.00 0.00 27 1013.2
20260504182244 76 256 8.0 10.0 0.00 0.00 0.00 27 1013.3
20260504181742 76 268 6.0 7.0 0.00 0.00 0.00 28 1013.5
20260504181239 76 242 5.0 5.0 0.00 0.00 0.00 28 1013.6
20260504180738 75 242 4.0 6.0 0.00 0.00 0.00 28 1013.7
20260504180236 75 264 6.0 7.0 0.00 0.00 0.00 29 1013.6
20260504175733 75 219 9.0 10.0 0.00 0.00 0.00 29 1013.4
20260504175230 75 244 7.0 8.0 0.00 0.00 0.00 29 1013.6
20260504174728 75 220 10.0 11.0 0.00 0.00 0.00 28 1013.5
20260504174226 75 252 7.0 8.0 0.00 0.00 0.00 29 1013.6
20260504173721 75 236 7.0 8.0 0.00 0.00 0.00 29 1013.8
20260504173219 74 216 11.0 15.0 0.00 0.00 0.00 28 1013.6
20260504172715 75 236 7.0 10.0 0.00 0.00 0.00 29 1013.6
20260504172212 74 288 8.0 9.0 0.00 0.00 0.00 28 1013.7
20260504171708 74 270 9.0 10.0 0.00 0.00 0.00 28 1013.8
20260504171206 74 258 10.0 11.0 0.00 0.00 0.00 28 1013.6
20260504170702 74 260 8.0 9.0 0.00 0.00 0.00 29 1013.7
20260504170200 75 270 9.0 10.0 0.00 0.00 0.00 29 1013.6
20260504160118 74 226 11.0 15.0 0.00 0.00 0.00 31 1013.7
20260504151045 73 207 7.0 7.0 0.00 0.00 0.00 34 1013.5
20260504150543 73 226 7.0 8.0 0.00 0.00 0.00 34 1013.3
20260504141008 71 142 0.0 1.0 0.00 0.00 0.00 35 1013.4
20260504140505 71 209 1.0 1.0 0.00 0.00 0.00 36 1013.6
20260504130429 68 339 1.0 1.0 0.00 0.00 0.00 39 1012.7
20260504110317 66 194 0.0 1.0 0.00 0.00 0.00 43 1012.2